Tarawa Terrace, NC

10:26 PM EST on February 09, 2016 (GMT -0500)
New River Marine Corps Air Station

Weather History for KNCA - March, 2013

Change the Weather History Date:

Monday, March 25, 2013

  Actual Average Record
Temperature  
Mean Temperature 45 °F -  
Max Temperature 52 °F 66 °F 78 °F (2002)
Min Temperature 39 °F 44 °F 34 °F (2006)
Degree Days  
Heating Degree Days 20    
Moisture  
Dew Point 36 °F    
Average Humidity 74    
Maximum Humidity 92    
Minimum Humidity 41    
Precipitation  
Precipitation 0.00 in - - ()
Sea Level Pressure  
Sea Level Pressure 29.62 in    
Wind  
Wind Speed 8 mph (West)    
Max Wind Speed 24 mph    
Max Gust Speed 33 mph    
Visibility 7 miles    
Events      
Averages and records for this station are not official NWS values.
T = Trace of Precipitation, MM = Missing Value Source: NWS Daily Summary

Daily Weather History Graph

Daily Weather History Graph

Search for Another Location

Airport or City:

Trip Planner

Search our weather history database for the weather conditions in past years. The results will help you decide how hot, cold, wet, or windy it might be!

Date:

Astronomy

Mar. 25, 2013 Rise Set
Actual Time 7:06 AM EDT 7:25 PM EDT
Civil Twilight 6:40 AM EDT 7:50 PM EDT
Nautical Twilight 6:11 AM EDT 8:20 PM EDT
Astronomical Twilight 5:41 AM EDT 8:50 PM EDT
Moon 5:57 PM EDT (3/25) 5:44 AM EDT (3/25)
Length of Visible Light 13h 09m
Length of Day
12h 19m
Waxing Gibbous, 96% of the Moon is Illuminated
Mar 25
Waxing Gibbous
Mar 27
Full
Apr 3
Last Quarter
Apr 10
New
Apr 18
First Quarter

Hourly Weather History & Observations

Time (EDT) Temp. Windchill Dew Point Humidity Pressure Visibility Wind Dir Wind Speed Gust Speed Precip Events Conditions
12:51 AM 42.8 °F 41.1 °F 39.2 °F 87% 29.60 in 4.0 mi NNW 3.5 mph - N/A   Overcast
12:56 AM 42.1 °F 40.2 °F 39.0 °F 89% 29.61 in 4.0 mi NNW 3.5 mph - N/A   Overcast
1:56 AM 43.0 °F 38.2 °F 39.9 °F 89% 29.53 in 7.0 mi NE 8.1 mph - N/A   Overcast
2:16 AM 42.8 °F 38.6 °F 39.2 °F 87% 29.53 in 6.0 mi NE 6.9 mph - N/A   Overcast
2:36 AM 42.8 °F 40.1 °F 39.2 °F 87% 29.56 in 9.0 mi North 4.6 mph - N/A   Overcast
2:56 AM 43.0 °F 41.3 °F 39.0 °F 86% 29.56 in 8.0 mi NW 3.5 mph - N/A   Overcast
3:43 AM 42.8 °F - 39.2 °F 87% 29.55 in 2.5 mi Calm Calm - N/A   Overcast
3:56 AM 42.1 °F 38.4 °F 39.9 °F 92% 29.57 in 1.5 mi WSW 5.8 mph - N/A   Overcast
4:13 AM 42.8 °F 38.0 °F 39.2 °F 87% 29.56 in 1.0 mi WSW 8.1 mph - N/A   Overcast
4:24 AM 42.8 °F 38.0 °F 39.2 °F 87% 29.56 in 0.8 mi West 8.1 mph - N/A   Mist
4:41 AM 42.8 °F 38.0 °F 39.2 °F 87% 29.57 in 1.0 mi WSW 8.1 mph - N/A   Mist
4:56 AM 42.1 °F 39.2 °F 39.9 °F 92% 29.57 in 1.0 mi WSW 4.6 mph - N/A   Mist
5:22 AM 42.8 °F 37.0 °F 39.2 °F 87% 29.57 in 1.8 mi WSW 10.4 mph - N/A   Overcast
5:29 AM 42.8 °F 37.5 °F 39.2 °F 87% 29.57 in 2.5 mi WSW 9.2 mph - N/A   Overcast
5:46 AM 42.8 °F 37.5 °F 39.2 °F 87% 29.57 in 3.0 mi WSW 9.2 mph - N/A   Overcast
5:56 AM 42.1 °F 38.4 °F 39.0 °F 89% 29.58 in 4.0 mi WSW 5.8 mph - N/A   Overcast
6:29 AM 42.8 °F 37.5 °F 39.2 °F 87% 29.58 in 6.0 mi WSW 9.2 mph - N/A   Overcast
6:53 AM 42.8 °F 37.5 °F 39.2 °F 87% 29.58 in 6.0 mi West 9.2 mph - N/A   Overcast
6:56 AM 42.1 °F 35.7 °F 39.0 °F 89% 29.60 in 6.0 mi West 11.5 mph - N/A   Overcast
7:56 AM 43.0 °F 38.8 °F 39.0 °F 86% 29.60 in 7.0 mi West 6.9 mph - N/A   Overcast
8:27 AM 44.6 °F 40.2 °F 39.2 °F 81% 29.59 in 8.0 mi WSW 8.1 mph - N/A   Overcast
8:42 AM 44.6 °F 40.2 °F 39.2 °F 81% 29.59 in 8.0 mi WSW 8.1 mph - N/A   Overcast
8:54 AM 44.6 °F 40.2 °F 39.2 °F 81% 29.59 in 8.0 mi WSW 8.1 mph - N/A   Overcast
8:56 AM 44.1 °F 38.6 °F 39.9 °F 85% 29.60 in 8.0 mi WSW 10.4 mph - N/A   Overcast
9:56 AM 46.9 °F - 39.9 °F 77% 29.61 in 10.0 mi WSW 15.0 mph 26.5 mph N/A   Overcast
10:56 AM 46.9 °F - 37.9 °F 71% 29.61 in 10.0 mi West 13.8 mph - N/A   Overcast
11:11 AM 46.4 °F 40.7 °F 37.4 °F 71% 29.61 in 10.0 mi West 12.7 mph 25.3 mph N/A   Overcast
11:38 AM 48.2 °F - 37.4 °F 66% 29.61 in 10.0 mi West 19.6 mph 27.6 mph N/A   Overcast
11:48 AM 48.2 °F - 37.4 °F 66% 29.61 in 10.0 mi West 19.6 mph 27.6 mph N/A   Overcast
11:56 AM 46.9 °F - 36.0 °F 66% 29.62 in 10.0 mi West 20.7 mph 33.4 mph N/A   Overcast
12:46 PM 48.2 °F - 35.6 °F 62% 29.61 in 10.0 mi West 20.7 mph 27.6 mph N/A   Mostly Cloudy
1:11 PM 48.2 °F - 35.6 °F 62% 29.61 in 10.0 mi West 21.9 mph 28.8 mph N/A   Overcast
1:56 PM 46.0 °F 38.3 °F 34.0 °F 63% 29.63 in 10.0 mi WNW 20.7 mph 27.6 mph N/A   Overcast
2:56 PM 48.0 °F - 33.1 °F 56% 29.63 in 10.0 mi WNW 18.4 mph 31.1 mph N/A   Overcast
3:56 PM 51.1 °F - 30.9 °F 46% 29.61 in 10.0 mi West 24.2 mph 33.4 mph N/A   Overcast
4:56 PM 48.9 °F - 28.0 °F 44% 29.63 in 10.0 mi WNW 17.3 mph 26.5 mph 0.00 in   Overcast
5:56 PM 48.9 °F - 26.1 °F 41% 29.67 in 10.0 mi WNW 16.1 mph 25.3 mph N/A   Overcast
6:56 PM 46.9 °F - 27.0 °F 46% 29.71 in 10.0 mi West 10.4 mph - N/A   Overcast
7:56 PM 46.0 °F 41.4 °F 25.0 °F 44% 29.75 in 10.0 mi West 9.2 mph - N/A   Overcast
8:56 PM 43.0 °F 37.7 °F 25.0 °F 49% 29.78 in 10.0 mi West 9.2 mph - N/A   Scattered Clouds
9:56 PM 41.0 °F 38.0 °F 27.0 °F 57% 29.80 in 10.0 mi WSW 4.6 mph - N/A   Partly Cloudy
10:56 PM 39.0 °F 34.8 °F 26.1 °F 60% 29.83 in 10.0 mi WSW 5.8 mph - N/A   Clear
11:56 PM 39.0 °F 32.3 °F 25.0 °F 57% 29.84 in 10.0 mi West 10.4 mph - N/A   Clear